[[{"header":{"parameterUnit":"m.s-1","parameterCategory":1,"la1":30.2991,"la2":30.254,"lo1":-89.0895,"lo2":-89.0444,"dy":0.0017,"dx":0.0017,"nx":28,"ny":28,"refTime":"2023-10-03T03:00:00:Z","depth":0,"parameterNumber":2,"parameterNumberName":"U-component_of_WINDS"},"data":[0,0,0,0,0,0,0,0,0,0,0,0,0,0,0,0,0,0,0,0,0,0,0,0,0,0,0,0,0,0,0,0,0,0,0,0,0,0,0,0,0,0,0,0,0,0,0,0,0,0,0,0,0,0,0,0,0,0,-5.4568,-5.4569,0,-5.4661,-5.4662,-5.4663,-5.4509,-5.4504,-5.4499,-5.4494,-5.459,-5.4597,-5.4605,0,0,0,0,0,0,0,0,0,0,0,0,0,-5.4257,-5.4263,-5.4568,-5.4569,-5.457,-5.4661,-5.4662,-5.4664,-5.451,-5.4504,-5.4498,-5.4492,-5.4588,-5.4597,-5.4606,0,0,0,0,0,0,0,0,0,0,0,0,0,-5.4375,-5.4266,-5.4568,-5.4505,-5.45,-5.4661,-5.4662,-5.4664,-5.4512,-5.4504,-5.4496,-5.4489,-5.4585,-5.4596,-5.4607,-5.4834,0,0,-5.4641,-5.4646,0,0,0,0,0,0,0,0,-5.4369,-5.4387,-5.4513,-5.4509,-5.4504,-5.4566,-5.4588,-5.4721,-5.4514,-5.4507,-5.4494,-5.4485,-5.4588,-5.4599,-5.4634,-5.4838,-5.4842,-5.4642,-5.4649,-5.4654,-5.4657,0,0,0,0,0,0,0,-5.4361,-5.4382,-5.4605,-5.4515,-5.451,-5.4472,-5.448,-5.4612,-5.4591,-5.4507,-5.4496,-5.4509,-5.4585,-5.4623,-5.4635,-5.4844,-5.4642,-5.4652,-5.4658,-5.4663,-5.5239,-5.5247,0,0,0,0,0,0,-5.436,-5.4376,-5.4602,-5.4607,-5.4416,-5.4484,-5.4493,-5.4554,-5.4589,-5.4587,-5.4516,-5.4502,-5.4608,-5.4622,-5.4638,-5.4905,-5.4653,-5.4664,-5.467,-5.523,-5.524,-5.525,0,0,0,0,0,0,-5.4354,-5.4382,-5.4598,-5.4489,-5.4514,-5.4497,-5.4567,-5.456,-5.4598,-5.4596,-5.4591,-5.456,-5.4602,-5.4622,-5.4786,-5.4906,-5.4669,-5.4679,-5.522,-5.5233,-5.5245,-5.5443,0,0,0,0,0,0,-5.4346,-5.4381,-5.4467,-5.4492,-5.452,-5.4745,-5.4575,-5.4567,-5.4618,-5.46,-5.4635,-5.4634,-5.4598,-5.477,-5.4797,-5.4918,-5.4688,-5.5209,-5.5226,-5.5241,-5.5426,-5.5461,-5.5491,0,0,0,0,0,-5.4335,-5.4519,-5.4472,-5.45,-5.4627,-5.4753,-5.4768,-5.4723,-5.4628,-5.4715,-5.4713,-5.4632,-5.4889,-5.4788,-5.4817,-5.4943,-5.5201,-5.5221,-5.524,-5.5411,-5.5454,-5.549,0,0,0,0,0,0,-5.4508,-5.4521,-5.4469,-5.4666,-5.471,-5.4726,-5.4834,-5.4771,-5.4842,-5.4822,-5.4763,-5.4773,-5.4949,-5.4962,-5.485,-5.5164,-5.5029,-5.5055,-5.5149,-5.519,-5.5223,-5.5216,-5.4697,0,0,0,0,0,-5.4569,-5.467,-5.4675,-5.4849,-5.4873,-5.4851,-5.4903,-5.4865,-5.4907,-5.4925,-5.4935,-5.498,-5.507,-5.5131,-5.5214,-5.5427,-5.5432,-5.5527,-5.556,-5.5587,-5.5611,-5.5724,-5.5767,-5.5313,-5.5313,-5.5313,0,0,-5.4696,-5.4716,-5.4783,-5.4884,-5.4913,-5.5019,-5.4867,-5.4985,-5.5063,-5.4943,-5.5098,-5.5108,-5.5153,-5.5343,-5.5427,-5.5359,-5.5737,-5.5612,-5.5634,-5.5642,-5.5748,-5.5791,-5.583,-5.5326,-5.5324,-5.5322,0,0,-5.4981,-5.5007,-5.5154,-5.5186,-5.5232,-5.5215,-5.5251,-5.5278,-5.5279,-5.5434,-5.5346,-5.5438,-5.5595,-5.5631,-5.567,-5.597,-5.5899,-5.5999,-5.6171,-5.6282,-5.6318,-5.6349,-5.6456,-5.6495,-5.6022,-5.6023,-5.6023,0,-5.5134,-5.5289,-5.5237,-5.5362,-5.5409,-5.5305,-5.5454,-5.5487,-5.5559,-5.5593,-5.5517,-5.5712,-5.5735,-5.5932,-5.6005,-5.604,-5.6079,-5.5995,-5.6317,-5.6348,-5.6376,-5.6477,-5.6518,-5.6034,-5.6033,-5.6032,-5.6031,0,-5.5474,-5.5583,-5.5696,-5.5768,-5.5827,-5.5964,-5.5932,-5.5999,-5.5956,-5.5948,-5.6107,-5.6131,-5.6218,-5.6261,-5.622,-5.6453,-5.6409,-5.6326,-5.6189,-5.6432,-5.6526,-5.6565,-5.6051,-5.6047,-5.6044,-5.6041,0,0,-5.587,-5.5911,-5.5954,-5.5985,-5.6028,-5.6111,-5.6243,-5.6327,-5.6385,-5.6438,-5.6546,-5.6682,-5.6605,-5.665,-5.6612,-5.671,-5.6945,-5.6614,-5.6614,-5.6674,-5.7203,-5.7266,-5.7311,-5.6898,-5.6906,-5.6911,-5.7199,0,-5.6154,-5.638,-5.6338,-5.6559,-5.6659,-5.6562,-5.6676,-5.6715,-5.6712,-5.6796,-5.6791,-5.6888,-5.6779,-5.6806,-5.6898,-5.6897,-5.7051,-5.6876,-5.6999,-5.7004,-5.6991,-5.736,-5.7427,-5.7697,-5.7236,-5.7242,-5.7246,0,-5.6515,-5.6581,-5.6813,-5.684,-5.688,-5.6984,-5.7057,-5.7139,-5.7182,-5.7172,-5.7222,-5.7166,-5.7297,-5.7159,-5.7338,-5.722,-5.7268,-5.7275,-5.7285,-5.7294,-5.714,-5.738,-5.7782,-5.7823,-5.7304,-5.7299,-5.7295,0,-5.6781,-5.6928,-5.7085,-5.7114,-5.715,-5.7225,-5.7244,-5.7278,-5.7332,-5.7396,-5.743,-5.751,-5.7554,-5.7616,-5.7583,-5.7485,-5.7769,-5.7628,-5.7764,-5.7766,-5.7828,-5.7825,-5.8244,-5.786,-5.7859,-5.7859,-5.7858,0,-5.7102,-5.7247,-5.7205,-5.7302,-5.7461,-5.7411,-5.757,-5.7577,-5.7609,-5.7705,-5.7627,-5.7719,-5.7669,-5.7758,-5.7733,-5.7885,-5.7906,-5.7901,-5.7893,-5.7908,-5.7909,-5.7939,-5.7919,-5.7869,-5.7867,-5.7865,-5.7863,0,-5.7426,-5.7403,-5.7568,-5.7588,-5.7597,-5.7714,-5.7731,-5.7822,-5.7812,-5.7935,-5.7961,-5.7946,-5.8046,-5.8019,-5.8128,-5.8111,-5.8304,-5.8272,-5.829,-5.8282,-5.842,-5.8407,-5.8873,-5.8931,-5.851,-5.8514,-5.8518,0,-5.7632,-5.7741,-5.7774,-5.7833,-5.7857,-5.7953,-5.8007,-5.7962,-5.8021,-5.8078,-5.8162,-5.8255,-5.8327,-5.8492,-5.8491,-5.8574,-5.8543,-5.8701,-5.8555,-5.8567,-5.8545,-5.8539,-5.855,-5.873,-5.8734,-5.8738,-5.8741,0,-5.8,-5.7984,-5.8065,-5.8143,-5.821,-5.8269,-5.832,-5.8373,-5.8332,-5.8403,-5.8504,-5.8561,-5.8672,-5.8766,-5.8842,-5.886,-5.8795,-5.8787,-5.8823,-5.884,-5.8846,-5.8844,-5.8368,-5.8777,-5.8773,-5.8771,-5.8769,-5.8767,-5.8271,-5.8364,-5.8401,-5.8494,-5.8528,-5.8579,-5.8665,-5.8666,-5.8749,-5.8836,-5.8805,-5.8921,-5.8961,-5.9056,-5.9085,-5.9175,-5.9116,-5.9168,-5.9181,-5.9195,-5.9212,-5.8832,-5.9189,-5.9188,-5.9187,-5.9186,-5.9186,0,-5.8635,-5.8654,-5.874,-5.8815,-5.8889,-5.8821,-5.8874,-5.894,-5.9044,-5.9086,-5.9159,-5.9276,-5.9366,-5.9373,-5.9458,-5.9529,-5.9502,-5.9553,-5.9547,-5.9553,-5.926,-5.9221,-5.9574,-5.9574,-5.9574,-5.9574,-5.9574,-5.9574,-5.8833,-5.8986,-5.8974,-5.9144,-5.9161,-5.9275,-5.9312,-5.9358,-5.9391,-5.9525,-5.96,-5.9604,-5.9632,-5.9718,-5.9799,-5.9798,-5.9833,-5.9897,-5.9885,-5.9612,-5.9573,-5.9536,-5.9499,-5.9905,-5.9905,-6.0169,-6.0172,-6.0174]},{"header":{"parameterUnit":"m.s-1","parameterCategory":1,"la1":30.2991,"la2":30.254,"lo1":-89.0895,"lo2":-89.0444,"dy":0.0017,"dx":0.0017,"nx":28,"ny":28,"refTime":"2023-10-03T03:00:00:Z","depth":0,"parameterNumber":3,"parameterNumberName":"V-component_of_WINDS"},"data":[0,0,0,0,0,0,0,0,0,0,0,0,0,0,0,0,0,0,0,0,0,0,0,0,0,0,0,0,0,0,0,0,0,0,0,0,0,0,0,0,0,0,0,0,0,0,0,0,0,0,0,0,0,0,0,0,0,0,-1.1343,-1.1343,0,-1.1325,-1.1325,-1.1325,-1.1331,-1.1332,-1.1332,-1.1332,-1.1314,-1.1313,-1.1312,0,0,0,0,0,0,0,0,0,0,0,0,0,-1.1382,-1.1381,-1.1343,-1.1343,-1.1343,-1.1325,-1.1325,-1.1325,-1.1331,-1.1332,-1.1332,-1.1333,-1.1314,-1.1313,-1.1312,0,0,0,0,0,0,0,0,0,0,0,0,0,-1.1365,-1.1381,-1.1343,-1.1344,-1.1344,-1.1325,-1.1325,-1.1324,-1.1331,-1.1332,-1.1332,-1.1333,-1.1315,-1.1313,-1.1312,-1.1292,0,0,-1.1308,-1.1307,0,0,0,0,0,0,0,0,-1.1366,-1.1363,-1.1344,-1.1344,-1.1344,-1.1331,-1.1332,-1.1313,-1.1331,-1.1336,-1.1332,-1.1333,-1.1319,-1.1317,-1.1313,-1.1291,-1.129,-1.1308,-1.1307,-1.1306,-1.1306,0,0,0,0,0,0,0,-1.1367,-1.1364,-1.1336,-1.1344,-1.1344,-1.1345,-1.1343,-1.1328,-1.1324,-1.1336,-1.1336,-1.1334,-1.1319,-1.1314,-1.1312,-1.129,-1.1308,-1.1307,-1.1306,-1.1305,-1.1247,-1.1246,0,0,0,0,0,0,-1.1368,-1.1365,-1.1337,-1.1336,-1.1356,-1.1343,-1.1341,-1.1334,-1.1324,-1.1324,-1.1333,-1.1334,-1.1316,-1.1314,-1.1312,-1.1285,-1.1306,-1.1305,-1.1305,-1.1247,-1.1246,-1.1246,0,0,0,0,0,0,-1.1369,-1.1366,-1.1337,-1.135,-1.1347,-1.1342,-1.1334,-1.1334,-1.1329,-1.1323,-1.1322,-1.1329,-1.1316,-1.1314,-1.1296,-1.1284,-1.1305,-1.1303,-1.1248,-1.1247,-1.1246,-1.1232,0,0,0,0,0,0,-1.137,-1.1366,-1.1359,-1.135,-1.1346,-1.1322,-1.1334,-1.1333,-1.1326,-1.1327,-1.1318,-1.1317,-1.1317,-1.1298,-1.1294,-1.1283,-1.1302,-1.1249,-1.1248,-1.1246,-1.1234,-1.1231,-1.1228,0,0,0,0,0,-1.1372,-1.1357,-1.1358,-1.1355,-1.1337,-1.1322,-1.1319,-1.1319,-1.1325,-1.1318,-1.1313,-1.1318,-1.1286,-1.1296,-1.1292,-1.128,-1.125,-1.1248,-1.1246,-1.1235,-1.1232,-1.1229,0,0,0,0,0,0,-1.1365,-1.1356,-1.1358,-1.1339,-1.1331,-1.1323,-1.1313,-1.1315,-1.1305,-1.1307,-1.1306,-1.1304,-1.1285,-1.1281,-1.1292,-1.1258,-1.1269,-1.1266,-1.1262,-1.1258,-1.1256,-1.1256,-1.1301,0,0,0,0,0,-1.1361,-1.135,-1.1342,-1.1327,-1.1322,-1.1318,-1.1312,-1.1312,-1.1303,-1.13,-1.1294,-1.1286,-1.1274,-1.1266,-1.1255,-1.1233,-1.123,-1.1223,-1.122,-1.1218,-1.1216,-1.1201,-1.1197,-1.124,-1.124,-1.124,0,0,-1.1354,-1.1347,-1.134,-1.1325,-1.1319,-1.1306,-1.1316,-1.1303,-1.1292,-1.1298,-1.128,-1.1276,-1.1266,-1.1245,-1.1236,-1.1241,-1.1203,-1.1216,-1.1214,-1.1213,-1.1199,-1.1195,-1.1191,-1.1239,-1.1239,-1.1239,0,0,-1.1333,-1.1328,-1.1313,-1.1306,-1.1296,-1.1293,-1.1289,-1.128,-1.1276,-1.1258,-1.1261,-1.1249,-1.1229,-1.1221,-1.1215,-1.1188,-1.119,-1.1184,-1.117,-1.1156,-1.1152,-1.1149,-1.1137,-1.1133,-1.1182,-1.1182,-1.1182,0,-1.1325,-1.1306,-1.1305,-1.1291,-1.1283,-1.1286,-1.127,-1.1264,-1.125,-1.1245,-1.1251,-1.1223,-1.1217,-1.1193,-1.1186,-1.1182,-1.1176,-1.1185,-1.1153,-1.115,-1.1147,-1.1135,-1.1131,-1.1181,-1.1181,-1.1181,-1.1181,0,-1.1296,-1.1282,-1.1272,-1.1257,-1.1248,-1.1234,-1.1229,-1.122,-1.122,-1.1216,-1.1196,-1.1188,-1.1174,-1.1169,-1.117,-1.1144,-1.1147,-1.1153,-1.1164,-1.1142,-1.1131,-1.1127,-1.118,-1.118,-1.118,-1.118,0,0,-1.1272,-1.1255,-1.1251,-1.1243,-1.1231,-1.122,-1.1204,-1.119,-1.1181,-1.1171,-1.1157,-1.1138,-1.1142,-1.1134,-1.1134,-1.1122,-1.1097,-1.1128,-1.1128,-1.1121,-1.1066,-1.1061,-1.1056,-1.1099,-1.1099,-1.1098,-1.1066,0,-1.1249,-1.1221,-1.1218,-1.1193,-1.1179,-1.118,-1.1166,-1.1156,-1.1151,-1.1138,-1.1133,-1.1119,-1.1126,-1.1121,-1.1109,-1.1103,-1.1086,-1.1105,-1.1084,-1.1084,-1.1085,-1.1051,-1.1046,-1.1017,-1.1062,-1.1062,-1.1061,0,-1.1219,-1.1207,-1.1179,-1.1166,-1.116,-1.1147,-1.1132,-1.112,-1.1108,-1.1105,-1.1095,-1.1095,-1.1077,-1.1088,-1.1062,-1.1075,-1.1066,-1.1061,-1.106,-1.1057,-1.107,-1.1045,-1.1008,-1.1002,-1.1055,-1.1055,-1.1056,0,-1.1202,-1.1178,-1.1158,-1.1152,-1.1136,-1.1127,-1.112,-1.1108,-1.1099,-1.1085,-1.1079,-1.1064,-1.1055,-1.1043,-1.1038,-1.1047,-1.1011,-1.1023,-1.1007,-1.1007,-1.0999,-1.0999,-1.0957,-1.0995,-1.0996,-1.0996,-1.0996,0,-1.1176,-1.1159,-1.115,-1.1137,-1.1117,-1.1113,-1.1093,-1.1087,-1.1076,-1.1061,-1.1062,-1.1048,-1.1043,-1.1028,-1.1024,-1.1002,-1.0998,-1.0994,-1.0993,-1.0993,-1.0994,-1.0987,-1.0988,-1.0994,-1.0995,-1.0995,-1.0995,0,-1.1154,-1.1147,-1.1125,-1.1111,-1.1107,-1.1092,-1.108,-1.1067,-1.1061,-1.1042,-1.1038,-1.1029,-1.101,-1.1004,-1.0983,-1.098,-1.0953,-1.0955,-1.0957,-1.0956,-1.094,-1.0941,-1.0891,-1.0883,-1.0928,-1.0928,-1.0927,0,-1.1137,-1.1124,-1.1107,-1.1097,-1.1089,-1.1073,-1.1063,-1.1058,-1.1047,-1.103,-1.1018,-1.1,-1.0985,-1.0955,-1.0946,-1.0929,-1.0929,-1.0913,-1.0927,-1.0926,-1.0926,-1.0926,-1.0924,-1.091,-1.091,-1.0909,-1.0909,0,-1.1108,-1.1104,-1.1089,-1.1072,-1.1059,-1.1045,-1.1032,-1.1024,-1.1016,-1.1003,-1.0984,-1.0972,-1.0949,-1.093,-1.0911,-1.0903,-1.0904,-1.0904,-1.0899,-1.0899,-1.09,-1.0897,-1.0948,-1.0906,-1.0906,-1.0906,-1.0906,-1.0907,-1.1087,-1.1073,-1.1059,-1.1041,-1.103,-1.1017,-1.1003,-1.0994,-1.0978,-1.0958,-1.0956,-1.0935,-1.092,-1.0895,-1.0886,-1.0868,-1.0873,-1.0866,-1.0864,-1.0862,-1.0859,-1.0903,-1.0865,-1.0865,-1.0865,-1.0865,-1.0865,0,-1.1056,-1.1046,-1.1029,-1.1009,-1.0995,-1.0996,-1.0981,-1.0968,-1.0949,-1.0935,-1.0919,-1.0895,-1.0876,-1.0864,-1.0845,-1.0832,-1.0832,-1.0827,-1.0827,-1.0825,-1.0858,-1.0863,-1.0828,-1.0828,-1.0828,-1.0828,-1.0828,-1.0828,-1.1038,-1.1014,-1.1009,-1.0979,-1.0969,-1.0947,-1.0938,-1.0925,-1.0913,-1.0886,-1.087,-1.0862,-1.0848,-1.0827,-1.0808,-1.0805,-1.0797,-1.0792,-1.0789,-1.0819,-1.0823,-1.0827,-1.0832,-1.079,-1.079,-1.0757,-1.0757,-1.0757]}]]